Weather History for MMTP - March, 2013

Change the Weather History Date:

Sunday, March 24, 2013

  Actual Average Record
Temperature  
Mean Temperature 82 °F -  
Max Temperature 89 °F 88 °F 91 °F (1998)
Min Temperature 75 °F 73 °F 71 °F (2001)
Cooling Degree Days 17    
Growing Degree Days 32 (Base 50)    
Moisture  
Dew Point 74 °F    
Average Humidity 77    
Maximum Humidity 94    
Minimum Humidity 59    
Precipitation  
Precipitation 0.00 in - - ()
Sea Level Pressure  
Sea Level Pressure 29.85 in    
Wind  
Wind Speed 3 mph ()    
Max Wind Speed 12 mph    
Max Gust Speed -    
Visibility 7.9 miles    
Events      
Averages and records for this station are not official NWS values.
T = Trace of Precipitation, MM = Missing Value Source: Averaged Metar Reports

Daily Weather History Graph

Daily Weather History Graph

Search for Another Location

Airport or City:

Trip Planner

Search our weather history database for the weather conditions in past years. The results will help you decide how hot, cold, wet, or windy it might be!

Date:

Astronomy

Mar. 24, 2013 Rise Set
Actual Time 6:10 AM CST 6:20 PM CST
Civil Twilight 5:49 AM CST 6:42 PM CST
Nautical Twilight 5:24 AM CST 7:07 PM CST
Astronomical Twilight 4:59 AM CST 7:32 PM CST
Moon 4:08 PM CST (3/24) 3:58 AM CST (3/24)
Length of Visible Light 12h 53m
Length of Day
12h 10m
Waxing Gibbous, 92% of the Moon is Illuminated
Mar 24
Waxing Gibbous
Mar 27
Full
Apr 2
Last Quarter
Apr 10
New
Apr 18
First Quarter

Hourly Weather History & Observations

Time (CST) Temp. Heat Index Dew Point Humidity Pressure Visibility Wind Dir Wind Speed Gust Speed Precip Events Conditions
12:40 AM 78.8 °F - 75.2 °F 89% 29.88 in 8.0 mi Calm Calm - N/A   Clear
1:40 AM 78.8 °F - 75.2 °F 89% 29.88 in 8.0 mi Calm Calm - N/A   Clear
3:40 AM 78.8 °F - 75.2 °F 89% 29.88 in 8.0 mi Calm Calm - N/A   Clear
5:45 AM 77.0 °F - 75.2 °F 94% 29.87 in 8.0 mi Calm Calm - N/A   Clear
5:50 AM 75.2 °F - 73.4 °F 94% 29.83 in 8.0 mi Calm Calm - N/A   Clear
6:40 AM 77.0 °F - 73.4 °F 89% 29.87 in 6.0 mi Calm Calm - N/A   Clear
7:49 AM 78.8 °F - 75.2 °F 89% 29.90 in 7.0 mi Calm Calm - N/A   Clear
8:40 AM 80.6 °F 86.2 °F 75.2 °F 84% 29.88 in 7.0 mi NW 9.2 mph - N/A   Partly Cloudy
9:55 AM 86.0 °F 93.4 °F 73.4 °F 66% 29.92 in 7.0 mi WSW 9.2 mph - N/A   Mostly Cloudy
10:40 AM 86.0 °F 95.1 °F 75.2 °F 70% 29.94 in 7.0 mi WSW 11.5 mph - N/A   Scattered Clouds
11:45 AM 87.8 °F 97.6 °F 75.2 °F 66% 29.85 in 7.0 mi WSW 11.5 mph - N/A   Scattered Clouds
12:40 PM 87.8 °F 95.6 °F 73.4 °F 62% 29.86 in 7.0 mi WSW 11.5 mph - N/A   Scattered Clouds
1:40 PM 89.6 °F 98.2 °F 73.4 °F 59% 29.80 in 7.0 mi WSW 11.5 mph - N/A   Scattered Clouds
2:40 PM 86.0 °F 93.4 °F 73.4 °F 66% 29.86 in 8.0 mi WSW 11.5 mph - N/A   Clear
3:40 PM 86.0 °F 93.4 °F 73.4 °F 66% 29.76 in 8.0 mi SSW 11.5 mph - N/A   Clear
4:40 PM 86.0 °F 93.4 °F 73.4 °F 66% 29.76 in 8.0 mi SSW 11.5 mph - N/A   Clear
5:57 PM 86.0 °F 93.4 °F 73.4 °F 66% 29.87 in 8.0 mi SSW 11.5 mph - N/A   Clear
6:40 PM 82.4 °F 88.2 °F 73.4 °F 74% 29.79 in 10.0 mi Calm Calm - N/A   Clear
7:40 PM 82.4 °F 88.2 °F 73.4 °F 74% 29.81 in 10.0 mi Calm Calm - N/A   Clear
8:40 PM 82.4 °F 88.2 °F 73.4 °F 74% 29.86 in 10.0 mi Calm Calm - N/A   Clear
9:40 PM 80.6 °F 86.2 °F 75.2 °F 84% 29.85 in 8.0 mi Calm Calm - N/A   Mostly Cloudy
10:40 PM 78.8 °F - 73.4 °F 83% 29.85 in 8.0 mi Calm Calm - N/A   Mostly Cloudy
11:40 PM 77.0 °F - 73.4 °F 89% 29.78 in 8.0 mi Calm Calm - N/A   Mostly Cloudy